Volver al catálogo

STARLINK-34713

ActivoComunicacionesVLEO
NORAD 64906·PAYLOAD·🇺🇸 United States

Lanzado Jul 26, 2025 desde Cape Canaveral Space Force Station

Loading…

Próximos Pases (próximas 24 horas)

TLE

ActualizadoSource: CelesTrak SupGP

Época: Sep 15, 2026, 03:08 UTC

1 64906C 25157C   26258.13104167 -.00036377  00000+0 -10748-2 0  2588
2 64906  53.1575 182.9544 0001321  86.1894  47.7936 15.34406417    11

Sigue STARLINK-34713 en tiempo real con AllMySat

Download on the App Store